Tracking 28920 objects as of 24-May-2024
HD Live streaming from Space Station
objects crossing your sky now

OBJECT N

Track OBJECT N now!
10-day predictions


NORAD ID: 55260
Int'l Code: 2023-007N
Perigee: 326.4 km
Apogee: 335.4 km
Inclination: 97.3 °
Period: 91.0 minutes
Semi major axis: 6701 km
RCS: Unknown
Launch date: January 15, 2023
Source: People's Republic of China (PRC)
Launch site: Taiyaun Space Center, China (TSC)
Your satellite tracking list
Your tracking list is empty




NASA's NSSDC Master Catalog

Two Line Element Set (TLE):
1 55260U 23007N   24145.34161842  .00352154  00000-0  16433-2 0  9994
2 55260  97.3022 228.5169 0006746 261.0738  98.9767 15.82365841 76345
Source of the keplerian elements: AFSPC